Theta_e
337 337 337 338 339 340 342 343 343 343 344 344 345 345 342 340 341 342 341 340 339 338 337 335 331 328 325 320 318 317 321 325 322 319 320 320 321 322 322 326 327 326
339 337 338 338 339 340 341 341 342 343 344 344 345 344 343 341 341 342 341 340 339 337 337 335 328 324 321 317 317 317 321 324 321 319 320 320 322 322 322 325 326 326
343 339 338 338 339 339 340 341 341 342 344 345 345 345 344 343 342 342 341 341 340 338 337 336 327 319 317 317 317 318 320 323 321 319 320 321 321 322 322 324 326 326
347 342 340 339 339 339 340 341 340 341 343 345 345 345 345 345 344 343 341 341 341 339 338 336 327 318 317 318 317 318 319 321 321 320 320 320 320 321 322 323 325 326
350 346 343 341 341 341 341 341 341 340 342 344 345 346 346 346 345 343 341 340 340 340 338 336 329 320 316 318 318 318 319 320 321 320 320 320 320 322 322 322 324 324
352 350 347 344 344 344 344 342 341 340 341 343 344 346 347 346 344 342 341 340 340 340 339 335 330 323 318 317 318 318 318 320 321 320 320 321 320 321 323 322 322 322
354 353 350 348 346 346 345 343 341 341 342 343 343 345 346 346 344 342 341 341 341 341 339 333 328 324 319 316 318 318 318 320 321 320 321 321 321 321 322 322 322 322
355 354 353 350 349 348 347 344 342 341 342 343 343 343 345 345 344 342 341 342 341 341 340 335 328 324 321 318 317 318 318 319 321 321 321 322 322 322 322 322 323 322
356 356 354 353 351 349 348 345 342 341 342 343 343 342 344 345 344 343 341 341 342 341 341 338 333 329 324 320 318 318 318 319 320 321 321 323 323 323 322 322 323 322
356 356 355 354 353 350 348 345 342 342 341 342 342 342 343 344 344 344 342 342 342 341 341 340 338 335 331 325 321 319 318 318 320 321 321 323 324 324 323 323 323 323
357 357 356 355 353 350 347 345 344 342 341 341 342 343 343 344 344 345 344 343 342 342 341 340 340 339 337 333 327 322 319 318 319 320 320 322 324 324 323 323 322 322
357 357 355 354 353 350 346 345 345 344 342 342 342 342 343 343 344 344 345 344 343 342 342 341 340 340 340 338 334 328 323 319 319 320 320 321 323 324 324 323 322 322
357 356 354 353 352 349 346 345 345 344 343 342 343 343 343 342 343 344 344 344 344 344 343 342 341 341 341 340 339 335 328 323 320 320 320 321 322 323 324 323 322 322
357 356 353 351 350 348 346 345 345 345 343 343 344 344 343 342 342 344 345 345 345 345 344 344 343 342 342 342 342 339 335 328 323 320 320 321 322 323 324 322 321 322
358 357 354 352 350 349 347 346 346 346 345 344 345 345 344 344 343 344 345 345 346 346 346 345 344 343 343 344 343 342 340 336 329 324 320 320 321 323 324 323 321 321
358 357 356 354 352 350 348 346 346 346 346 346 346 346 345 346 346 346 346 346 346 346 346 346 345 344 344 346 346 345 343 341 337 330 322 319 320 322 323 323 322 320
358 358 357 355 353 351 350 347 347 348 348 348 347 347 347 348 349 348 348 348 348 348 347 347 345 345 346 348 348 347 346 345 342 337 329 322 319 320 321 322 323 321
358 358 358 356 354 353 351 350 350 351 351 350 349 349 348 349 350 349 349 349 349 349 348 348 347 348 349 350 349 349 348 347 346 343 338 330 322 319 320 323 323 322
358 359 359 356 355 353 352 353 354 354 354 352 351 349 349 349 350 349 350 350 350 349 349 349 350 350 351 351 351 350 350 350 348 346 344 339 329 321 320 323 324 323
358 359 358 357 355 354 355 356 356 355 355 354 352 351 351 351 350 350 350 349 349 349 349 350 352 352 353 353 352 352 352 351 350 347 346 343 337 328 321 321 323 324
358 358 358 358 357 357 357 357 356 356 356 354 353 352 352 351 350 350 349 349 349 349 351 352 353 354 354 354 353 353 353 352 350 348 346 344 342 335 324 320 322 323
357 357 358 359 359 359 358 357 357 356 356 355 354 353 353 352 352 351 349 349 350 351 353 354 355 356 356 355 355 354 354 353 351 348 346 344 343 340 330 321 320 322
358 357 358 359 360 360 359 357 356 356 355 355 355 354 354 353 352 351 350 350 352 353 355 356 357 357 357 356 356 355 354 354 351 349 347 344 343 343 336 325 320 321
358 358 358 359 360 360 358 358 357 356 355 354 354 353 353 352 352 352 352 354 355 355 356 357 358 358 358 357 357 356 355 354 353 350 348 345 343 342 339 329 321 320
359 359 358 359 360 359 359 358 357 356 354 353 353 353 353 353 354 355 355 356 357 357 358 359 359 359 359 358 357 356 356 354 352 350 347 345 344 342 339 332 322 319
359 359 359 360 359 359 360 360 358 357 355 354 354 355 356 356 356 356 357 357 358 359 359 359 360 359 359 358 357 356 355 353 352 350 348 346 344 342 339 332 323 320
Wind_Speed
41 40 39 38 37 35 34 33 32 31 31 30 29 29 27 25 24 23 22 20 19 18 16 15 14 15 16 16 17 16 14 13 13 15 17 16 17 18 18 19 19 18
42 41 41 40 39 37 36 35 33 32 31 31 30 29 28 26 24 23 22 21 20 19 17 16 15 17 18 18 18 17 15 15 14 16 18 17 17 18 19 20 20 20
43 42 42 42 40 38 36 35 34 33 32 31 31 30 29 27 26 25 24 23 22 21 19 17 17 19 20 19 19 17 16 16 15 15 17 18 18 19 20 21 21 21
44 43 43 42 41 39 37 36 36 35 33 33 32 31 30 29 28 27 26 25 25 23 20 18 19 22 22 21 20 18 17 17 16 16 16 18 19 19 20 21 21 21
44 44 43 42 41 40 39 38 37 36 35 34 33 31 31 31 31 30 29 28 27 24 22 21 22 24 24 22 21 20 18 18 18 19 18 18 19 19 20 21 22 22
43 44 44 43 41 40 40 40 38 37 36 35 34 33 33 33 32 32 31 30 28 26 24 22 23 26 26 25 23 22 21 20 20 21 20 20 20 20 20 21 21 21
43 44 44 44 42 41 41 40 39 39 38 37 36 35 34 34 34 34 32 31 29 27 25 24 24 27 28 27 25 24 23 22 22 22 22 22 22 21 20 21 21 21
43 43 44 44 43 43 42 41 41 40 39 38 38 37 36 36 35 35 34 32 31 29 27 25 25 27 29 29 27 26 25 24 24 24 24 23 23 22 21 21 22 22
42 43 44 44 44 44 43 42 42 41 40 40 39 38 38 37 37 36 34 34 33 31 29 27 27 28 29 30 29 27 27 26 25 26 25 24 24 23 22 22 23 23
43 43 43 44 45 45 45 43 42 42 42 41 41 40 39 39 38 37 36 35 34 34 32 30 29 29 30 30 30 28 28 27 27 27 27 26 24 23 23 23 23 23
44 43 44 45 45 45 46 45 43 43 42 42 42 41 41 40 39 38 38 37 37 36 35 33 31 30 30 30 30 29 29 28 28 28 29 27 24 23 24 24 23 24
45 44 44 45 45 46 46 46 45 44 44 43 43 42 42 41 41 40 40 39 38 38 37 35 34 32 32 31 30 30 30 29 29 29 30 29 25 24 25 25 23 24
47 46 44 44 45 45 46 47 47 46 45 44 43 43 42 42 42 42 41 40 39 39 38 37 36 35 34 33 32 32 31 31 30 29 30 29 26 26 26 25 24 24
48 46 44 44 44 45 47 48 48 47 46 45 44 44 43 42 42 42 42 41 41 40 39 39 38 38 37 36 35 34 32 32 30 30 29 27 27 29 29 27 26 25
49 47 45 44 44 46 48 49 49 49 47 46 46 45 44 43 42 42 42 42 41 41 41 41 41 41 40 39 37 35 33 32 31 31 31 27 27 31 32 29 27 27
49 48 47 46 46 47 48 49 50 49 49 48 47 46 45 44 44 43 43 43 42 42 42 42 42 42 42 41 39 35 33 32 31 33 34 30 27 32 34 30 28 29
50 49 48 47 47 48 48 49 50 50 50 49 48 47 46 45 45 45 44 43 43 42 42 42 42 42 42 42 40 35 32 32 32 34 36 33 29 31 34 31 29 30
51 50 49 49 48 48 49 49 50 50 50 50 49 48 47 46 46 45 45 44 43 43 42 42 42 42 42 42 41 36 31 31 33 34 36 36 33 32 33 33 31 31
51 51 50 50 49 49 49 49 50 51 51 50 50 48 47 47 47 46 45 44 44 43 43 42 42 42 42 43 41 36 30 30 33 34 35 36 35 33 33 34 33 32
51 51 51 50 49 49 49 50 51 51 51 50 49 49 48 48 47 46 46 45 44 43 43 42 43 43 43 43 41 35 29 30 34 35 34 34 35 35 33 34 34 33
52 52 51 51 50 49 49 50 51 51 51 51 50 50 49 49 48 47 46 45 44 44 43 43 43 43 42 42 40 34 29 30 34 36 34 33 34 35 35 35 34 32
52 52 52 51 50 50 50 50 52 52 52 51 50 50 50 49 48 48 46 45 44 44 44 44 43 43 42 42 39 33 29 31 34 36 36 34 33 34 35 36 34 31
53 52 52 51 50 51 51 51 52 52 52 51 50 50 50 50 49 48 46 46 45 44 44 44 43 43 42 42 38 33 30 31 34 36 37 36 34 34 36 36 35 32
54 53 52 52 51 52 52 52 51 51 51 50 50 51 51 50 49 47 46 46 45 45 44 43 42 42 42 41 37 33 32 32 34 37 38 37 35 35 36 36 36 33
55 54 53 52 53 52 52 52 51 50 49 48 49 50 50 49 48 47 47 46 45 44 43 42 42 42 42 41 37 34 33 33 35 37 38 36 36 36 36 37 37 35
55 55 55 54 54 53 52 52 51 49 47 47 48 49 49 48 47 46 46 45 44 43 42 42 42 42 42 39 36 35 34 33 34 36 36 36 35 34 34 36 38 36
Wind_Direction
221 219 221 222 223 223 220 219 220 221 223 223 223 224 225 225 224 223 224 223 226 228 226 227 230 231 232 233 230 225 221 219 217 216 215 216 216 217 220 220 218 215
224 221 221 222 223 223 222 222 222 224 225 224 225 226 227 227 226 227 228 226 228 230 229 230 232 230 230 230 228 224 217 214 213 210 208 208 211 214 216 216 218 218
226 223 222 222 223 224 223 222 223 225 227 225 225 226 226 227 227 229 230 228 229 231 231 232 230 227 228 228 227 225 220 217 215 209 205 204 208 213 215 217 219 219
227 225 224 224 225 225 224 223 222 225 227 226 224 224 226 227 227 229 230 229 229 230 232 234 229 225 227 227 226 225 223 221 217 213 208 205 208 212 215 218 219 219
229 227 226 225 225 226 226 224 223 224 226 227 225 224 225 227 227 228 229 229 229 230 232 234 230 225 226 227 225 223 223 220 215 214 212 209 211 211 212 217 218 219
229 228 226 226 226 226 227 226 225 224 226 227 226 225 225 227 228 228 228 229 230 231 232 234 231 226 225 227 224 222 221 218 215 214 213 213 214 212 212 216 218 219
229 228 227 227 226 227 228 227 226 225 226 227 227 227 227 227 228 228 228 230 231 232 233 234 232 227 226 227 225 223 221 218 217 215 214 214 215 215 213 215 218 221
229 229 228 227 227 227 228 227 226 225 226 227 227 227 227 228 229 228 229 230 231 232 234 234 232 229 227 228 227 227 224 220 217 216 216 215 216 217 216 216 218 221
229 229 229 227 227 227 228 227 226 226 226 227 228 227 227 229 230 230 231 231 232 233 234 234 233 231 230 229 230 230 228 224 220 218 217 216 217 219 218 217 219 221
228 228 228 228 227 228 228 227 226 226 227 228 229 228 228 229 231 232 233 234 234 235 235 235 234 234 233 231 231 232 232 229 225 223 221 218 220 223 220 219 221 223
226 227 228 228 228 228 228 226 226 227 228 228 229 229 229 229 230 232 233 235 236 237 237 237 237 237 237 235 234 234 233 232 230 228 225 221 223 227 225 223 224 227
225 227 228 228 229 228 227 226 226 227 228 229 229 230 230 230 231 233 234 236 238 239 239 240 241 242 242 241 239 237 235 234 232 231 229 225 226 230 229 227 228 230
225 227 228 229 229 228 227 226 226 228 229 230 230 230 231 231 232 233 236 238 240 240 241 242 243 244 245 244 243 241 239 237 235 234 232 229 230 234 234 231 231 233
226 227 228 229 230 229 227 226 227 228 230 230 230 230 231 233 234 235 236 238 240 242 243 244 245 246 246 244 243 243 242 241 240 238 234 232 236 240 239 236 234 234
225 226 228 229 229 229 227 226 227 229 230 230 230 231 232 233 235 236 237 239 240 242 243 245 246 248 247 245 244 244 244 244 244 241 234 232 238 241 241 240 237 235
224 226 227 227 228 228 227 227 227 228 229 230 231 232 232 233 234 235 237 239 241 242 244 245 247 249 249 247 245 245 247 248 247 244 238 235 238 239 238 239 240 237
224 225 225 227 227 228 228 227 227 227 228 230 231 232 233 233 234 235 237 239 241 243 244 246 249 250 249 248 247 246 248 250 250 248 243 241 240 238 237 238 241 242
224 224 225 226 227 228 228 228 227 226 227 228 230 232 233 234 234 236 238 240 241 243 246 248 250 251 250 249 247 246 247 250 251 250 248 246 243 240 239 239 242 245
224 223 224 226 227 228 228 227 226 225 225 227 229 232 233 234 235 237 239 241 242 244 247 249 251 251 250 250 248 246 246 248 249 250 250 250 246 243 241 240 242 246
225 223 224 226 227 227 227 226 226 225 225 227 229 231 232 233 235 237 239 241 243 245 248 250 250 250 250 249 247 246 245 245 247 248 249 251 249 245 243 241 243 247
224 225 225 225 225 225 226 226 226 226 225 226 228 230 232 233 235 237 239 242 244 246 247 249 250 251 251 250 247 246 245 244 245 246 247 249 250 246 243 243 244 248
224 225 225 224 224 224 224 225 226 226 226 227 228 230 232 233 235 237 240 242 244 245 246 248 250 251 252 251 248 248 246 243 243 244 245 246 248 247 244 243 244 248
223 225 225 223 223 223 224 225 226 226 227 227 227 229 231 232 234 237 240 242 242 244 245 247 250 252 252 252 250 248 247 244 244 244 244 244 246 247 245 243 243 248
222 224 225 224 223 224 224 225 224 225 227 227 228 230 231 233 235 237 238 240 241 244 245 247 250 253 254 253 251 249 248 246 245 244 243 243 244 246 246 242 242 246
222 223 225 224 224 225 224 224 224 224 226 228 229 230 232 233 234 235 237 239 241 243 245 247 250 253 254 253 251 250 248 246 244 244 244 243 243 246 246 242 240 243
222 223 223 224 225 226 224 223 223 224 225 227 228 229 230 232 234 235 237 239 241 242 244 246 248 250 251 251 251 251 249 245 243 245 245 244 243 245 246 242 239 241